Miscellaneous Local Product
Issued by NWS North Platte, NE

Home | Current Version | Previous Version | Graphics & Text | Print | Product List | Glossary On
Versions: 1 2 3 4 5 6 7 8 9 10 11 12 13 14 15 16 17 18 19 20 21 22 23 24 25 26 27 28 29 30 31 32 33 34 35 36 37 38 39 40 41 42 43 44 45 46 47 48 49 50
429
AXUS43 KLBF 181610
MISLBF


WESTERN AND NORTH CENTRAL NEBRASKA HOURLY WEATHER ROUNDUP
NATIONAL WEATHER SERVICE NORTH PLATTE NE
1000 AM CST WED JAN 18 2017

NOTE: "FAIR" INDICATES FEW OR NO CLOUDS BELOW 12,000 FEET WITH NO
SIGNIFICANT WEATHER AND/OR OBSTRUCTIONS TO VISIBILITY.

NOTE: STATIONS NOT REPORTING VARIABLES SUCH AS SKY/WEATHER OR
PRESSURE ARE PROVIDED BY RAWS AND APRS NETWORKS AND ARE NOT UNDER
NATIONAL WEATHER SERVICE QUALITY CONTROL.

...OBSERVATIONS IN AND NEAR THE EASTERN PANHANDLE OF NEBRASKA...

CITY           SKY/WX    TMP DP  RH WIND       PRES   REMARKS
PINE RIDGE     CLOUDY    32  18  56 W9        29.83S WCI  24
CHADRON        CLOUDY    23  14  68 W8        29.83F WCI  14
ALLIANCE       CLOUDY    33  23  66 W5        29.85S WCI  29
SIDNEY         CLOUDY    36  21  54 W12       29.89F WCI  28
CRESCENT LAKE    N/A     29  20  67 CALM        N/A
$$

...OBSERVATIONS IN NORTHERN NEBRASKA AND FAR SOUTHERN SOUTH DAKOTA...

CITY           SKY/WX    TMP DP  RH WIND       PRES   REMARKS
WINNER         FAIR      37  21  52 SW8       29.82S WCI  31
VALENTINE      CLOUDY    30  22  72 SW6       29.84F WCI  24
THEDFORD       MOSUNNY   35  25  67 SW6       29.88R WCI  30
AINSWORTH      MOSUNNY   35  25  67 SW5       29.85S WCI  31
O`NEILL        CLOUDY    36  29  78 S12       29.88R WCI  27
ORD            CLOUDY    32  27  81 S6        29.92F WCI  26
BROKEN BOW     CLOUDY    31  27  85 W5        29.91S WCI  26
VALENTINE NWR    N/A     50  20  30 SW6G13      N/A
BUTTE            N/A     32  26  77 SW6         N/A  WCI  26
HALSEY           N/A     27  20  73 S6          N/A  WCI  21
SARGENT          N/A     31  24  74 CALM        N/A
CHAMBERS         N/A     36  27  71 S3          N/A
EWING            N/A     37  33  86 S7          N/A  WCI  31
$$

...OBSERVATIONS IN SOUTHWEST NEBRASKA AND FAR NORTHEAST COLORADO...

CITY           SKY/WX    TMP DP  RH WIND       PRES   REMARKS
HOLYOKE        FAIR      27  21  80 SW3       29.92R
IMPERIAL       CLOUDY    27  21  78 W6        29.92F WCI  20
OGALLALA       CLOUDY    27  23  84 W7        29.91F WCI  20
NORTH PLATTE   CLOUDY    30  25  81 W7        29.93R HAZE    WCI  23
MCCOOK         MOSUNNY   33  30  88 W5        29.94F WCI  29
LEXINGTON      CLOUDY    32  29  88 W5        29.94F WCI  27
STAPLETON        N/A     30  25  83 CALM        N/A
GOTHENBURG       N/A     34  27  76 CALM        N/A
CALLAWAY         N/A     34  30  85 W6          N/A  WCI  29
$$

...OBSERVATIONS IN CENTRAL LINCOLN COUNTY AREA...

CITY           SKY/WX    TMP DP  RH WIND       PRES   REMARKS
N.P. AIRPORT   CLOUDY    30  25  81 W7        29.93R HAZE    WCI  23
N.P. DOWNTOWN    N/A     28  24  86 CALM        N/A
N.P. SOUTHEAST   N/A     28  24  83 CALM        N/A
N.P. HILLCREST   N/A     26  24  92 CALM        N/A
$$

...SOME OBSERVATIONS FROM AROUND THE REGION...

CITY           SKY/WX    TMP DP  RH WIND       PRES   REMARKS
LARAMIE        CLOUDY     5   2  87 NW5       29.99R WCI  -4
CHEYENNE       CLOUDY    37  11  34 W7        29.91F WCI  32
DENVER         CLOUDY    31  14  49 SW12      29.92F WCI  22
AKRON          CLOUDY    29  19  66 W15       29.91F WCI  18
SCOTTSBLUFF    CLOUDY    31  17  56 NW5       29.89F WCI  26
RAPID CITY     CLOUDY    28  19  69 CALM      29.76F
BISMARCK       CLOUDY    22  15  75 CALM      29.76S
PIERRE         CLOUDY    19  13  77 S8        29.81F WCI   9
SIOUX FALLS    CLOUDY    29  27  92 S5        29.89F WCI  24
OMAHA          MOSUNNY   33  29  85 S13       30.04S WCI  24
GRAND ISLAND   SUNNY     38  33  82 S10       29.96S WCI  31
KANSAS CITY    FOG       32  30  92 S10       30.14R VSB 1/4 WCI  24
WICHITA        CLOUDY    40  36  86 S9        30.14R WCI  34
OKLAHOMA CITY  CLOUDY    44  39  82 SE5       30.15S
DALLAS         CLOUDY    49  47  93 N8        30.10S
AMARILLO       PTSUNNY   42  42 100 S17       30.05S
DODGE CITY     CLOUDY    40  36  86 S14       30.05R WCI  32
HAYS           CLOUDY    37  34  89 S10       30.04  WCI  30
GOODLAND       CLOUDY    30  26  85 W7        29.93S WCI  23
$$




USA.gov is the U.S. government's official web portal to all federal, state and local government web resources and services.